Location: Daytona Beach
(29.2106°N, 81.0231°W)
Time: 23:37:07
(UTC-04:00)

RS-15 - Pass Details

Date: 30 September 2021
Orbit: 1884 x 2160 km, 64.8° (Epoch: 21 October)

Event Time Altitude Azimuth Distance (km) Brightness Sun altitude
Rises 22:06:56 0° 339° (NNW) 5,610 10.9 -38.7°
Reaches altitude 10° 22:13:11 10° 2° (N) 4,647 10.1 -39.9°
Maximum altitude 22:19:15 15° 33° (NNE) 4,292 9.7 -41.2°
Enters shadow 22:20:05 15° 38° (NE) 4,302 9.7 -41.3°
